Regional Weather Roundup
Issued by NWS

Home | Current Version | Previous Version | Graphics & Text | Print | Product List | Glossary On
Versions: 1 2 3 4 5 6 7 8 9 10 11 12 13 14 15 16 17 18 19 20 21 22 23 24 25 26 27 28 29 30 31 32 33 34 35 36 37 38 39 40 41 42 43 44 45 46 47 48 49 50
000
ASUS43 KIND 252059
RWRIN

WEATHER ROUNDUP FOR INDIANA
NATIONAL WEATHER SERVICE INDIANAPOLIS IN
500 PM EDT MON MAY 25 2015

NOTE: "FAIR" INDICATES FEW OR NO CLOUDS BELOW 12,000 FEET WITH NO
SIGNIFICANT WEATHER AND/OR OBSTRUCTIONS TO VISIBILITY.

* - STATION DOES NOT REPORT WEATHER SUCH AS PRECIPITATION OR FOG.

+ - STATION NOT QUALITY CONTROLLED BY THE NATIONAL WEATHER SERVICE.
    USE DATA WITH CAUTION...ESPECIALLY DEWPOINT AND RELATIVE
    HUMIDITY OBSERVATIONS.

INZ001>003-010>013-019-020-252200-
NORTHWEST INDIANA

CITY           SKY/WX    TMP DP  RH WIND       PRES   REMARKS
GARY /AIRPORT/ PTSUNNY   81  59  47 SW17G32   29.94S
RENSSELAER +   PTSUNNY   82  57  42 SW18G29   29.96S

$$

LMZ046-743>745-252200-
SOUTHERN LAKE MICHIGAN

STATION/POSITION TIME  TEMP    WIND        PRES    WAVE
                       AIR SEA DIR/SP/G            HT
                 (UTC) (F)     (DEG/KT/KT) (MB)    (FT)
BURNS HARBOR     2000   76     220/ 19/ 26 1013.9R
MICHIGAN CITY    2000   68     230/ 20/ 21   N/A
5NW MICH CITY    2000   63 52  250/ 12/ 16   N/A     3

$$

INZ004-005-014>016-021>024-252200-
NORTH CENTRAL INDIANA

CITY           SKY/WX    TMP DP  RH WIND       PRES   REMARKS
ELKHART        MOSUNNY   81  59  47 SW21G28   29.95R
GOSHEN         MOSUNNY   81  61  50 SW22G31   29.95R
SOUTH BEND     MOSUNNY   81  58  45 SW22G30   29.94R

$$

INZ006>009-017-018-025>027-252200-
NORTHEAST INDIANA

CITY           SKY/WX    TMP DP  RH WIND       PRES   REMARKS
ANGOLA *+      CLOUDY    79  73  83 SW24      29.95S
FORT WAYNE     PTSUNNY   78  62  57 SW23G29   30.00S

$$

INZ028-029-035-036-043>045-051>053-252200-
WEST CENTRAL INDIANA

CITY           SKY/WX    TMP DP  RH WIND       PRES   REMARKS
CRAWFORDSVL +  CLOUDY    78  56  46 S20G28    30.02F
GREENCASTLE +  CLOUDY    75  61  60 SW6       30.05S
LAFAYETTE      CLOUDY    79  62  56 SW16G26   29.98S
TERRE HAUTE    CLOUDY    78  65  63 S13G21    30.04R

$$

INZ030>032-037>040-046>048-054>057-064-065-252200-
CENTRAL INDIANA

CITY           SKY/WX    TMP DP  RH WIND       PRES   REMARKS
COLUMBUS       MOSUNNY   75  63  64 S15       30.07F
GREENWOOD *+   PTSUNNY   77  61  57 S15G24    30.06F
INDIANAPOLIS   CLOUDY    79  63  57 SW17      30.03F
-EAGLE CREEK   CLOUDY    77  64  64 S14G22    30.04S
KOKOMO *+      CLOUDY    79  61  53 SW22G30   30.00F
MT COMFORT *+  PTSUNNY   79  54  41 SW18      30.05F
SHELBYVILLE    PTSUNNY   80  63  55 SW21G26   30.05F

$$

INZ033-034-041-042-049-050-058-059-252200-
EAST CENTRAL INDIANA

CITY           SKY/WX    TMP DP  RH WIND       PRES   REMARKS
MUNCIE         PTSUNNY   80  62  54 SW17G28   30.04S

$$

INZ060-061-067>069-081>083-085>088-252200-
SOUTHWEST INDIANA

CITY           SKY/WX    TMP DP  RH WIND       PRES   REMARKS
EVANSVILLE     CLOUDY    74  66  76 S10       30.08F
HUNTINGBURG *+ CLOUDY    73  64  73 S14       30.10S

$$

INZ062-063-066-070>080-084-089>092-252200-
SOUTH CENTRAL AND SOUTHEAST INDIANA

CITY           SKY/WX    TMP DP  RH WIND       PRES   REMARKS
BLOOMINGTON    CLOUDY    75  66  73 S14       30.06F
MADISON *+     PTSUNNY   73  63  68 S14       30.15S
SEYMOUR +      CLOUDY    77  63  61 S17G23    30.09F

$$




USA.gov is the U.S. government's official web portal to all federal, state and local government web resources and services.